Location: ??????????
(54.7560°N, 39.1389°E)
Time: 10:53:20
(UTC+00:00)

NOSS 2-3 (C) - Pass Details

Date: 19 May 2025
Orbit: 469 x 1713 km, 63.3° (Epoch: 13 June)

Event Time Altitude Azimuth Distance (km) Brightness Sun altitude
Rises 18:24:52 0° 245° (WSW) 2,512 6.9 -6.5°
Reaches altitude 10° 18:26:53 10° 251° (WSW) 1,667 6.1 -6.7°
Maximum altitude 18:30:26 53° 330° (NNW) 659 4.2 -7.0°
Drops below altitude 10° 18:34:39 10° 47° (NE) 1,991 6.2 -7.4°
Sets 18:37:17 0° 53° (NE) 3,069 7.1 -7.6°
